Wind_Speed
82 80 80 80 81 82 82 80 79 81 80 79 79 81 82 82 79 83 84 83 85 88 81 79 78 83 87 89 90 84 85 81 82 74 71 63 59 56 59 52 49 46 44
83 79 80 81 83 79 82 83 80 80 81 79 82 83 86 86 82 83 84 83 81 81 76 81 84 87 89 85 85 88 80 79 73 81 65 58 55 58 50 49 48 45 45
75 82 80 81 83 77 77 79 79 80 81 81 78 81 82 82 80 80 78 73 70 72 77 81 87 86 82 84 82 82 77 82 79 73 62 55 60 50 51 45 43 44 45
73 76 79 80 80 80 77 78 73 72 72 73 73 73 75 77 73 66 66 71 78 81 84 87 85 82 83 84 82 79 80 82 74 62 57 56 50 51 44 41 42 44 42
76 78 82 82 80 79 79 79 78 76 69 71 68 74 62 63 67 68 74 76 80 85 89 85 85 83 86 85 79 80 83 78 68 59 53 49 44 40 40 40 40 39 32
72 77 82 82 79 82 78 73 61 68 63 64 68 68 71 74 74 80 82 83 84 84 82 84 81 92 84 78 83 87 79 70 64 59 53 46 41 38 37 35 35 34 29
61 68 73 88 87 81 61 57 61 65 74 70 63 67 69 70 78 77 79 73 80 81 77 84 89 81 75 82 80 78 70 69 59 53 45 42 36 34 34 34 32 33 30
62 64 53 49 57 63 72 75 74 70 59 66 75 76 73 75 77 80 63 73 77 80 89 86 85 78 79 83 78 73 67 61 54 46 44 37 33 32 33 33 32 31 30
35 50 67 69 65 61 75 74 74 68 65 71 73 75 73 68 68 77 82 83 80 86 82 78 75 81 84 81 72 70 66 57 46 43 38 35 34 33 33 37 38 36 32
52 64 67 73 63 70 61 68 74 75 74 79 72 72 75 70 73 76 77 84 84 79 78 80 82 84 79 78 69 62 59 55 44 36 36 36 33 34 36 36 35 37 36
61 65 67 70 78 70 77 83 81 77 81 79 81 76 82 88 83 77 78 76 77 80 80 82 85 79 76 67 61 56 57 50 45 42 42 41 41 39 38 36 39 39 38
71 73 76 82 83 83 80 82 72 67 74 76 80 81 80 79 80 75 80 82 84 84 86 87 80 76 69 60 55 52 54 51 51 52 49 44 45 45 43 41 41 43 43
74 69 71 73 75 80 78 80 81 82 83 84 86 92 80 79 81 82 84 84 81 82 82 77 73 71 63 60 55 58 51 56 56 51 46 44 46 48 47 47 44 44 46
68 79 75 77 80 80 82 81 82 85 87 84 81 78 76 78 82 82 80 81 82 79 76 76 67 65 63 59 57 61 57 55 55 57 44 52 48 49 50 50 48 48 49
68 68 83 87 85 86 88 80 73 70 71 76 79 80 81 78 80 82 82 83 84 82 79 71 67 64 62 62 63 61 58 65 63 73 64 68 67 57 56 58 55 55 53
56 62 72 75 76 75 78 81 80 81 86 83 79 82 80 83 86 82 85 82 78 72 73 68 66 67 65 66 67 67 68 77 82 84 84 71 75 71 68 68 66 63 56
51 59 60 62 63 67 64 65 70 75 79 83 81 81 83 82 80 82 78 71 70 71 70 70 69 72 69 80 79 78 82 79 82 81 82 80 76 76 74 72 69 67 64
54 60 59 59 62 67 70 71 73 72 73 75 77 79 81 78 80 74 73 71 69 69 71 70 72 77 83 83 85 88 84 83 80 79 79 80 77 79 75 71 70 70 67
50 53 59 58 61 62 61 62 65 67 71 73 73 75 72 69 68 68 69 71 72 71 71 72 73 73 74 78 77 78 81 81 82 82 82 81 79 76 75 73 67 69 73
44 48 51 52 54 57 59 62 64 65 66 65 63 61 61 64 66 67 66 68 69 70 71 73 74 77 79 78 80 81 85 85 85 84 80 80 79 81 79 80 82 84 82
43 46 47 49 52 54 55 56 55 54 54 54 54 55 58 61 65 67 68 70 74 79 79 81 82 85 86 87 84 83 86 87 84 82 82 84 88 90 90 91 92 94 94
40 42 44 46 46 45 43 43 45 46 49 52 57 61 65 69 71 74 77 80 82 84 86 87 87 85 86 84 84 80 78 83 89 90 92 94 99 100 103 105 109 108 109
36 36 34 32 32 35 39 43 46 50 55 59 63 67 70 75 78 81 83 85 87 89 88 86 82 79 78 78 83 85 86 89 92 99 104 108 112 115 116 118 120 119 119
22 23 27 30 33 38 42 46 50 53 54 58 60 62 66 68 71 73 74 74 74 73 73 73 76 78 83 87 89 95 97 100 103 104 111 116 121 126 127 127 124 121 120
20 23 27 31 36 40 44 48 51 53 54 55 57 59 62 64 66 66 67 68 70 71 73 77 81 87 88 93 99 102 107 112 115 117 116 122 125 128 128 126 123 121 118
22 26 30 34 38 40 43 47 50 53 55 59 59 60 63 66 67 68 68 69 72 75 79 82 86 90 94 101 107 112 116 120 121 121 120 116 115 118 119 119 116 111 108
Wind_Direction
269 270 272 273 274 274 275 275 276 274 274 274 275 275 276 279 281 284 287 287 287 288 287 289 291 292 295 298 300 301 303 304 304 305 307 302 295 288 290 286 281 275 269
269 272 274 275 273 276 274 275 275 276 276 277 275 277 279 281 284 285 285 287 286 289 289 286 293 293 298 300 301 302 303 304 309 308 304 298 292 290 286 286 280 278 276
271 272 274 275 274 276 276 276 278 280 277 276 281 280 279 282 286 285 285 286 283 290 291 297 295 299 301 302 306 306 304 307 308 307 303 297 296 287 285 282 276 280 280
271 273 273 274 278 279 279 282 281 280 278 281 280 280 279 281 282 281 284 284 288 291 296 297 301 299 301 303 304 307 305 309 309 305 300 296 291 290 283 286 279 283 280
267 271 273 274 276 277 282 281 281 283 281 284 282 283 278 280 282 281 285 289 289 293 295 296 300 302 300 302 303 303 306 307 309 301 296 295 290 286 286 288 287 286 276
272 268 267 273 273 277 280 282 275 277 280 284 284 279 281 280 284 288 287 291 289 296 297 298 297 297 300 302 302 307 307 304 300 296 292 288 287 287 286 292 290 283 276
267 263 269 266 266 271 276 271 276 281 284 280 278 282 280 279 285 288 289 289 294 293 295 299 299 297 300 305 307 306 301 306 296 295 294 290 286 285 285 292 287 281 278
259 265 266 256 261 262 268 266 276 285 280 277 285 284 281 280 283 286 286 290 293 293 294 295 299 298 303 306 306 304 298 296 294 291 292 287 286 289 290 289 289 279 273
260 252 255 260 259 257 267 272 280 279 273 279 276 277 281 284 287 288 294 289 288 292 292 293 299 301 304 302 302 299 294 289 285 286 283 279 278 286 294 298 290 283 270
226 234 242 250 255 257 264 267 275 269 277 275 272 276 289 294 291 285 286 291 291 289 292 298 298 303 302 302 294 292 290 284 276 282 280 275 274 278 287 293 295 292 273
216 233 239 249 257 254 264 269 268 271 268 270 274 279 280 284 289 285 285 288 293 292 296 298 301 301 299 294 290 286 285 276 275 281 274 277 280 278 282 288 291 292 286
223 236 246 250 249 254 261 259 262 267 273 278 281 281 282 285 285 287 287 288 291 294 296 297 298 299 296 292 287 283 283 278 280 281 271 272 277 275 278 278 285 289 284
228 232 239 243 249 251 253 255 262 269 275 279 281 274 283 281 282 286 288 292 290 293 295 296 295 294 292 290 283 285 284 280 285 282 279 278 277 271 273 277 282 284 285
235 232 236 242 245 248 254 265 271 274 280 272 278 278 281 284 284 288 290 291 289 291 292 292 289 288 284 284 283 282 286 289 290 300 274 288 277 274 276 275 278 281 280
237 242 238 242 248 255 257 265 268 271 271 271 272 276 281 285 286 286 287 292 292 294 294 292 290 286 285 290 292 293 299 300 297 295 291 293 291 284 282 283 281 280 277
246 245 244 245 251 250 257 264 267 269 269 272 274 279 281 283 284 287 288 290 293 292 292 291 290 291 291 294 294 299 293 291 287 288 288 288 289 290 289 287 286 283 275
244 245 251 252 252 253 257 258 266 268 270 275 278 277 280 282 282 283 286 286 289 289 293 295 297 298 297 296 294 283 285 287 288 287 287 288 288 287 287 287 284 281 277
246 247 251 257 259 257 263 266 269 271 273 275 278 280 281 283 287 289 290 291 291 290 291 287 285 278 280 280 280 284 285 287 287 286 286 287 287 286 284 281 281 279 276
249 252 253 256 258 262 265 268 270 272 276 280 281 283 286 287 288 289 290 290 290 290 290 290 289 288 287 288 289 288 288 289 289 289 289 288 286 283 281 281 274 271 273
258 260 263 267 269 269 270 272 276 278 280 283 285 286 287 288 287 287 288 289 289 288 289 289 291 292 292 291 291 291 291 290 289 287 287 285 283 281 277 275 275 275 269
266 268 271 273 274 275 276 277 280 283 284 285 288 289 289 290 291 292 292 294 295 296 296 295 295 294 292 291 291 291 290 291 289 287 287 286 284 283 280 278 276 274 273
271 271 271 272 275 278 283 287 288 290 293 295 295 295 295 295 294 293 293 293 293 292 292 292 291 291 290 289 288 286 284 286 287 286 285 282 280 278 277 276 274 271 268
270 272 276 282 287 292 295 296 298 300 300 299 297 296 294 292 291 290 289 288 288 288 287 288 288 287 287 288 290 289 287 284 283 286 287 285 283 281 279 277 276 276 273
285 289 293 299 299 300 301 301 301 299 297 298 299 297 295 293 292 292 291 291 291 291 292 293 294 294 294 294 294 293 291 289 285 281 280 279 279 280 280 281 281 280 276
292 300 305 307 306 305 304 302 301 302 304 304 303 305 305 303 301 300 299 298 299 300 298 298 298 298 298 295 292 290 289 288 288 286 284 284 284 284 282 280 279 278 276
312 312 312 310 309 306 306 308 309 308 305 303 304 307 310 309 307 305 305 304 302 300 300 299 298 297 294 292 292 291 290 289 288 288 288 286 284 282 281 280 280 279 277
Height
10849 10850 10850 10850 10848 10847 10848 10849 10851 10851 10849 10848 10846 10842 10840 10836 10834 10832 10828 10826 10822 10818 10814 10810 10805 10802 10798 10795 10790 10785 10780 10774 10769 10762 10755 10748 10741 10736 10731 10725 10724 10724 10723
10837 10840 10838 10838 10833 10838 10839 10837 10837 10838 10837 10835 10833 10829 10827 10825 10823 10820 10817 10813 10809 10807 10801 10798 10795 10789 10787 10781 10777 10772 10768 10763 10755 10749 10743 10739 10729 10724 10719 10714 10713 10713 10713
10831 10827 10826 10825 10820 10825 10824 10825 10824 10823 10823 10823 10822 10818 10815 10814 10811 10808 10804 10801 10795 10792 10788 10785 10781 10777 10773 10768 10763 10758 10752 10747 10741 10735 10728 10724 10716 10714 10710 10706 10704 10703 10703
10823 10819 10816 10812 10812 10814 10815 10815 10813 10810 10810 10810 10808 10807 10803 10803 10801 10797 10793 10788 10784 10781 10778 10773 10769 10764 10759 10755 10750 10745 10740 10734 10728 10722 10718 10714 10707 10705 10700 10697 10695 10694 10694
10814 10813 10805 10801 10804 10802 10803 10803 10802 10801 10800 10799 10798 10796 10793 10792 10789 10786 10781 10777 10774 10771 10766 10761 10757 10753 10748 10744 10738 10732 10725 10719 10715 10711 10708 10704 10700 10696 10693 10689 10687 10684 10684
10808 10805 10793 10792 10791 10788 10795 10793 10791 10791 10790 10788 10786 10784 10781 10779 10778 10774 10771 10766 10762 10759 10754 10751 10746 10741 10735 10730 10725 10718 10712 10706 10702 10699 10697 10694 10691 10688 10687 10684 10680 10677 10677
10799 10793 10790 10785 10782 10781 10784 10780 10780 10778 10782 10778 10774 10772 10770 10767 10764 10761 10758 10754 10749 10745 10742 10738 10733 10727 10720 10716 10710 10704 10699 10696 10692 10689 10687 10683 10683 10682 10680 10678 10675 10672 10670
10790 10786 10780 10774 10773 10775 10775 10769 10771 10771 10769 10765 10763 10760 10757 10754 10750 10749 10746 10742 10736 10731 10729 10725 10718 10714 10709 10704 10699 10694 10689 10686 10682 10679 10677 10673 10675 10673 10672 10671 10668 10666 10665
10792 10774 10771 10770 10766 10766 10763 10760 10762 10761 10757 10755 10752 10749 10747 10742 10738 10736 10733 10729 10722 10717 10714 10711 10706 10702 10697 10692 10687 10682 10678 10674 10671 10669 10667 10665 10664 10665 10663 10662 10660 10659 10658
10781 10763 10764 10764 10762 10761 10756 10752 10752 10749 10746 10743 10741 10736 10735 10729 10726 10722 10717 10714 10709 10704 10701 10696 10692 10689 10683 10679 10673 10669 10666 10664 10662 10660 10657 10656 10653 10653 10653 10653 10652 10650 10650
10768 10758 10756 10753 10751 10751 10743 10742 10740 10738 10735 10734 10729 10724 10721 10718 10713 10711 10706 10698 10694 10691 10688 10680 10678 10676 10671 10667 10661 10657 10654 10653 10653 10651 10646 10644 10643 10642 10642 10642 10642 10641 10640
10751 10748 10745 10743 10741 10740 10737 10733 10730 10727 10724 10720 10717 10715 10708 10704 10702 10696 10690 10683 10681 10676 10673 10668 10664 10661 10656 10653 10650 10645 10643 10641 10640 10639 10634 10634 10633 10631 10630 10630 10629 10629 10629
10735 10734 10734 10730 10729 10727 10724 10720 10717 10714 10712 10708 10705 10702 10696 10692 10686 10679 10673 10670 10667 10663 10659 10654 10648 10644 10641 10638 10636 10634 10630 10628 10624 10624 10621 10619 10619 10618 10618 10617 10617 10616 10615
10720 10722 10722 10718 10715 10713 10710 10709 10705 10703 10701 10699 10693 10689 10684 10678 10670 10664 10658 10652 10648 10653 10646 10639 10636 10629 10626 10626 10622 10619 10616 10610 10605 10603 10608 10602 10604 10604 10604 10604 10603 10604 10603
10707 10707 10708 10706 10704 10703 10701 10699 10696 10695 10690 10683 10680 10677 10671 10662 10654 10650 10643 10636 10628 10628 10627 10624 10621 10616 10612 10609 10605 10602 10596 10594 10589 10586 10587 10586 10586 10587 10588 10587 10588 10588 10588
10692 10693 10693 10695 10694 10692 10690 10687 10686 10682 10675 10670 10666 10657 10656 10649 10641 10635 10630 10624 10616 10610 10609 10606 10604 10599 10596 10592 10588 10585 10582 10579 10577 10573 10569 10573 10568 10567 10566 10566 10566 10568 10571
10680 10682 10682 10683 10683 10679 10675 10675 10673 10666 10659 10655 10650 10644 10640 10635 10629 10623 10619 10611 10605 10599 10593 10589 10585 10581 10577 10574 10572 10573 10568 10564 10560 10555 10550 10548 10550 10548 10547 10545 10546 10546 10548
10670 10669 10669 10670 10668 10666 10666 10663 10659 10653 10645 10642 10636 10632 10627 10621 10613 10609 10603 10597 10591 10587 10582 10578 10574 10570 10565 10564 10560 10553 10547 10545 10540 10536 10534 10529 10529 10523 10527 10529 10525 10521 10525
10659 10658 10657 10657 10655 10655 10651 10646 10643 10638 10634 10628 10624 10619 10613 10607 10602 10596 10590 10584 10578 10573 10568 10562 10556 10553 10549 10540 10538 10534 10526 10523 10517 10513 10510 10507 10507 10505 10502 10501 10510 10506 10503
10648 10647 10647 10646 10645 10642 10638 10635 10631 10628 10623 10617 10613 10607 10601 10594 10588 10581 10577 10568 10562 10557 10553 10546 10540 10532 10526 10524 10519 10512 10504 10500 10498 10494 10492 10485 10480 10480 10482 10483 10480 10477 10484
10639 10638 10637 10636 10634 10631 10627 10624 10620 10616 10611 10606 10599 10593 10585 10580 10572 10564 10558 10552 10544 10534 10530 10525 10519 10513 10507 10501 10502 10497 10486 10477 10473 10469 10468 10463 10455 10451 10450 10447 10448 10447 10446
10632 10630 10628 10626 10623 10621 10617 10612 10609 10604 10599 10594 10587 10580 10572 10564 10557 10550 10543 10534 10528 10522 10515 10509 10504 10496 10486 10480 10477 10479 10473 10462 10449 10445 10440 10435 10426 10424 10418 10415 10410 10412 10411
10625 10623 10620 10618 10615 10611 10607 10603 10598 10594 10588 10582 10575 10568 10561 10550 10543 10536 10530 10522 10513 10505 10498 10492 10485 10478 10471 10464 10453 10448 10447 10442 10435 10418 10406 10396 10385 10379 10377 10374 10368 10369 10366
10617 10615 10613 10611 10608 10604 10599 10594 10588 10583 10579 10570 10562 10555 10546 10539 10528 10519 10512 10504 10495 10487 10481 10473 10464 10460 10450 10441 10432 10419 10412 10406 10399 10399 10379 10366 10354 10341 10331 10327 10325 10322 10316
10612 10610 10608 10605 10600 10595 10590 10585 10579 10572 10565 10558 10549 10540 10531 10522 10513 10504 10496 10487 10478 10469 10462 10454 10445 10433 10426 10416 10402 10392 10381 10370 10358 10348 10349 10331 10317 10303 10290 10285 10281 10277 10272
10605 10603 10600 10596 10592 10588 10582 10576 10569 10562 10555 10545 10537 10527 10517 10506 10497 10488 10479 10471 10462 10454 10444 10434 10424 10414 10403 10389 10375 10362 10350 10337 10325 10312 10302 10295 10279 10262 10252 10243 10239 10237 10235